GW5569 Weather Reports


Display with metric or nautical units.
time (UTC)temp
F
wind
direction
speed
MPH
gust
MPH
rain 1hr
in
rain 24hr
in
rain mn
in
humidity
%
barometer
mb
20260510153029 65 334 0.0 3.0 0.00 0.00 0.00 74 1013.7
20260510151531 64 0 1.0 3.0 0.00 0.00 0.00 85 1013.8
20260510150038 63 301 0.0 2.0 0.00 0.00 0.00 77 1013.8
20260510144541 61 22 0.0 1.0 0.00 0.00 0.00 82 1013.8
20260510143035 59 0 0.0 2.0 0.00 0.00 0.00 84 1014.0
20260510141530 59 0 0.0 1.0 0.00 0.00 0.00 86 1013.8
20260510140027 57 0 0.0 1.0 0.00 0.00 0.00 87 1013.9
20260510134528 55 0 0.0 1.0 0.00 0.00 0.00 87 1013.7
20260510133030 55 0 0.0 2.0 0.00 0.00 0.00 87 1013.8
20260510131531 54 0 0.0 1.0 0.00 0.00 0.00 87 1013.9
20260510130028 53 0 0.0 0.0 0.00 0.00 0.00 88 1013.7
20260510124533 53 0 0.0 0.0 0.00 0.00 0.00 88 1013.3
20260510123027 53 0 0.0 0.0 0.00 0.00 0.00 88 1013.3
20260510121528 53 0 0.0 0.0 0.00 0.00 0.00 88 1013.2
20260510120034 52 0 0.0 0.0 0.00 0.00 0.00 88 1013.2
20260510114530 52 0 0.0 0.0 0.00 0.00 0.00 88 1012.9
20260510113027 51 0 0.0 0.0 0.00 0.00 0.00 88 1012.8
20260510111528 51 0 0.0 0.0 0.00 0.00 0.00 88 1012.9
20260510110030 51 0 0.0 0.0 0.00 0.00 0.00 88 1012.7
20260510104529 50 0 0.0 1.0 0.00 0.00 0.00 88 1012.5
20260510103029 50 0 0.0 1.0 0.00 0.00 0.00 88 1012.2
20260510101530 50 0 0.0 0.0 0.00 0.00 0.00 88 1012.1
20260510100037 49 324 0.0 0.0 0.00 0.00 0.00 88 1012.1
20260510094546 49 0 0.0 1.0 0.00 0.00 0.00 88 1012.1
20260510093028 48 0 0.0 1.0 0.00 0.00 0.00 88 1012.1
20260510091530 48 0 0.0 4.0 0.00 0.00 0.00 88 1012.1
20260510090032 47 110 0.0 4.0 0.00 0.00 0.00 88 1011.9
20260510084528 46 0 0.0 3.0 0.00 0.00 0.00 88 1011.8
20260510083030 46 0 0.0 0.0 0.00 0.00 0.00 88 1011.5
20260510081543 46 0 0.0 0.0 0.00 0.00 0.00 88 1011.5
20260510080030 46 0 0.0 0.0 0.00 0.00 0.00 88 1011.5
20260510074529 45 0 0.0 0.0 0.00 0.00 0.00 87 1011.4
20260510073027 45 0 0.0 0.0 0.00 0.00 0.00 87 1011.5
20260510071537 45 0 0.0 0.0 0.00 0.00 0.00 87 1011.3
20260510070036 44 0 0.0 0.0 0.00 0.00 0.00 87 1011.1
20260510064528 44 0 0.0 0.0 0.00 0.00 0.00 87 1010.9
20260510063029 45 0 0.0 0.0 0.00 0.00 0.00 87 1010.8
20260510061528 45 0 0.0 0.0 0.00 0.00 0.00 87 1011.1
20260510060028 45 0 0.0 0.0 0.00 0.00 0.00 87 1011.1
20260510054530 45 0 0.0 0.0 0.00 0.00 0.00 87 1011.3
20260510053030 46 0 0.0 0.0 0.00 0.00 0.00 87 1011.3
20260510051531 46 0 0.0 0.0 0.00 0.00 0.00 87 1011.4
20260510050031 46 0 0.0 0.0 0.00 0.00 0.00 87 1011.4
20260510044534 46 0 0.0 0.0 0.00 0.00 0.00 87 1011.6
20260510043028 46 0 0.0 0.0 0.00 0.00 0.00 87 1011.6
20260510041527 46 0 0.0 0.0 0.00 0.00 0.00 87 1011.6
20260510040032 47 0 0.0 0.0 0.00 0.00 0.00 87 1011.6
20260510034531 47 0 0.0 0.0 0.00 0.00 0.00 87 1011.5
20260510033030 47 0 0.0 0.0 0.00 0.00 0.00 87 1011.2
20260510031528 47 0 0.0 0.0 0.00 0.00 0.00 87 1011.3
20260510030034 48 0 0.0 0.0 0.00 0.00 0.00 87 1011.2
20260510024530 48 0 0.0 0.0 0.00 0.00 0.00 87 1011.3
20260510023028 48 0 0.0 0.0 0.00 0.00 0.00 86 1011.3
20260510021533 49 0 0.0 0.0 0.00 0.00 0.00 86 1011.2
20260510020030 49 0 0.0 0.0 0.00 0.00 0.00 86 1011.3
20260510014531 50 0 0.0 0.0 0.00 0.00 0.00 86 1011.3
20260510013030 50 0 0.0 0.0 0.00 0.00 0.00 86 1011.3
20260510011539 51 0 0.0 1.0 0.00 0.00 0.00 86 1011.1
20260510010029 51 0 0.0 0.0 0.00 0.00 0.00 86 1011.1
20260510004532 52 0 0.0 0.0 0.00 0.00 0.00 86 1010.9
20260510003031 52 0 0.0 0.0 0.00 0.00 0.00 85 1010.9
20260510001532 53 0 0.0 0.0 0.00 0.00 0.00 85 1010.8
20260510000054 54 0 0.0 0.0 0.00 0.00 0.00 85 1010.7
20260509234545 54 0 0.0 0.0 0.00 0.00 0.00 85 1010.7
20260509233031 55 0 0.0 0.0 0.00 0.00 0.00 84 1010.8
20260509231528 56 0 0.0 0.0 0.00 0.00 0.00 84 1010.6
20260509230035 56 0 0.0 1.0 0.00 0.00 0.00 84 1010.6
20260509224529 56 0 0.0 1.0 0.00 0.00 0.00 84 1010.8
20260509223028 56 0 0.0 1.0 0.00 0.00 0.00 84 1010.5
20260509221530 56 0 0.0 0.0 0.00 0.00 0.00 83 1010.9
20260509220027 56 0 0.0 1.0 0.00 0.00 0.00 83 1011.1
20260509214532 55 0 0.0 0.0 0.00 0.00 0.00 82 1011.3
20260509213030 56 0 0.0 1.0 0.00 0.00 0.00 80 1011.4
20260509211529 58 0 0.0 1.0 0.00 0.00 0.00 72 1011.4
20260509210039 59 0 0.0 3.0 0.00 0.00 0.00 70 1011.2
20260509204535 59 0 0.0 2.0 0.00 0.00 0.00 69 1010.6
20260509203030 60 285 0.0 4.0 0.00 0.00 0.00 69 1010.9
20260509201536 60 298 0.0 4.0 0.00 0.00 0.00 79 1010.8
20260509200032 59 251 2.0 8.0 0.00 0.00 0.00 69 1010.7
20260509194535 59 332 2.0 9.0 0.00 0.00 0.00 69 1011.1
20260509193031 59 331 2.0 8.0 0.00 0.00 0.00 68 1011.1
20260509191530 60 316 2.0 8.0 0.00 0.00 0.00 66 1011.4
20260509190032 60 321 1.0 6.0 0.00 0.00 0.00 65 1011.4
20260509184541 61 151 1.0 3.0 0.00 0.00 0.00 74 1011.4
20260509183033 61 312 1.0 7.0 0.00 0.00 0.00 64 1011.4
20260509181528 62 236 2.0 5.0 0.00 0.00 0.00 63 1011.3
20260509180027 62 267 2.0 9.0 0.00 0.00 0.00 60 1011.1
20260509174536 63 0 0.0 7.0 0.00 0.00 0.00 61 1011.4
20260509173035 63 284 2.0 5.0 0.00 0.00 0.00 69 1011.1
20260509171533 64 272 0.0 5.0 0.00 0.00 0.00 58 1011.3
20260509170030 63 0 0.0 1.0 0.00 0.00 0.00 60 1011.4
20260509164530 64 0 0.0 5.0 0.00 0.00 0.00 71 1011.4
20260509163029 66 0 0.0 5.0 0.00 0.00 0.00 64 1011.7
20260509161529 66 0 1.0 7.0 0.00 0.00 0.00 64 1011.7
20260509160036 65 0 0.0 4.0 0.00 0.00 0.00 57 1011.9
20260509154532 65 145 0.0 4.0 0.00 0.00 0.00 66 1011.9